Regional Weather Roundup
Issued by NWS Midland/Odessa, TX

Skip options and go directly to product.
Home | Oldest Version | Previous Version | Current Version | All | Graphics & Text | Save Text | Print | Product List | Glossary On

Skip product version selection by date and time.   
593
ASUS44 KMAF 301410
RWRMAF
MIDLAND AREA WEATHER ROUNDUP
NATIONAL WEATHER SERVICE MIDLAND TX
900 AM CDT THU OCT 30 2014

...IN SOUTHWEST TEXAS AND SOUTHEAST NEW MEXICO...

CITY           SKY/WX    TMP DP  RH WIND       PRES   REMARKS
ALPINE         CLEAR     58  53  84 SW5       30.28R
ANDREWS        FAIR      53  51  94 W3        30.15R
ARTESIA        NOT AVBL
BIG SPRING     SUNNY     61  58  91 SE9       30.15S
CARLSBAD       CLEAR     50  45  83 NW6       30.17R
DRYDEN           N/A     64  62  93 E6        30.13R
FORT STOCKTON  SUNNY     59  54  83 SW10      30.15R
GUAD PASS      CLEAR     57  43  59 W7        30.28R
HOBBS          CLEAR     54  54 100 W9        30.17R
MARFA          CLEAR     48  46  93 N5        30.26R
MIDLAND AIRPK  SUNNY     59  55  88 CALM      30.14S
MIDLAND INTL   SUNNY     57  53  86 CALM      30.13R FOG
ODESSA         SUNNY     58  54  86 W3        30.14R FOG
PECOS          CLEAR     50  47  90 CALM      30.15R
PRESIDIO       FAIR      64  55  70 NW6       30.16R
SEMINOLE       CLEAR     51  49  93 CALM      30.15R FOG
SNYDER         SUNNY     55  54  96 S7        30.13S
WINK           PTCLDY    51  46  83 N3        30.13S
$$
...OTHER STATIONS IN TEXAS...

CITY           SKY/WX    TMP DP  RH WIND       PRES   REMARKS
ABILENE        SUNNY     60  53  77 S12       30.13R
AMARILLO       CLEAR     47  44  90 N9        30.19R
AUSTIN         MOSUNNY   62  60  93 NE5       30.14R
BROWNSVILLE    SUNNY     74  70  87 CALM      30.08R
CORPUS CHRISTI CLOUDY    73  71  93 NE9       30.09R FOG
DALLAS FTW     MOSUNNY   59  50  72 CALM      30.15R
DEL RIO        SUNNY     66  63  90 E9        30.11R FOG
EL PASO        CLEAR     54  38  54 N9        30.21R
HOUSTON INT    MOSUNNY   61  50  67 NE7       30.14R
LUBBOCK        CLEAR     50  46  86 NW6       30.14R
SAN ANGELO     SUNNY     59  54  83 CALM      30.13R
SAN ANTONIO    CLOUDY    67  62  84 NE5       30.14R
WACO           PTSUNNY   57  51  80 E3        30.16R
WICHITA FALLS  NOT AVBL
$$
...OTHER LOCATIONS IN NEW MEXICO...

CITY           SKY/WX    TMP DP  RH WIND       PRES   REMARKS
ALAMAGORDO     NOT AVBL
ALBUQUERQUE    PTCLDY    47  13  25 N8        30.32R
CANNON AFB     PTCLDY    51  35  53 N22       30.19R
CLOVIS         CLEAR     50  36  57 N17       30.21R
HOLLOMAN AFB   PTCLDY    43  35  71 E2        30.22R
ROSWELL        PTCLDY    47  41  80 NW6       30.19R
RUIDOSO        CLEAR     46  28  49 SW5       30.36R
SANTA FE       PTCLDY    39  12  33 N16       30.33R WCI  30
TRUTH OR CONSE CLEAR     48  34  58 NW3       30.27R
TUCUMCARI      CLEAR     50  28  42 NW6       30.23R
$$

USA.gov is the U.S. government's official web portal to all federal, state and local government web resources and services.